Location: Lima
(44.6384°N, 112.5920°W)
Time: 03:56:16
(UTC+00:00)

YUBILEINY - Visible Passes

Search period start: 16 April 2024 00:00
Search period end: 26 April 2024 00:00
Orbit: 1479 x 1508 km, 82.5° (Epoch: 15 April)

Date Brightness Start Highest point End Pass type
(mag) Time Alt. Az. Time Alt. Az. Time Alt. Az.
16 Apr ? 02:31:54 10° S 02:40:42 78° E 02:49:34 10° N visible
16 Apr ? 04:31:29 10° WSW 04:38:30 26° WNW 04:45:35 10° N visible
17 Apr ? 03:39:53 10° SW 03:48:11 44° WNW 03:56:33 10° N visible
17 Apr ? 11:51:07 10° N 11:58:05 25° ENE 12:04:59 10° ESE visible
18 Apr ? 02:49:25 10° SSW 02:58:15 74° W 03:07:08 10° N visible
18 Apr ? 04:51:23 10° W 04:56:48 17° NW 05:02:16 10° NNW visible
18 Apr ? 11:03:01 10° NNE 11:07:17 14° NE 11:11:30 10° E visible
19 Apr ? 03:58:40 10° SW 04:06:10 30° WNW 04:13:44 10° N visible
19 Apr ? 12:08:11 10° N 12:16:11 37° ENE 12:24:04 10° SE visible
20 Apr ? 03:07:27 10° SSW 03:15:58 51° WNW 03:24:34 10° N visible
20 Apr ? 05:13:04 10° WNW 05:15:23 11° NW 05:17:41 10° NNW visible
20 Apr ? 11:19:21 10° NNE 11:25:42 21° ENE 11:31:59 10° ESE visible
21 Apr ? 04:18:11 10° WSW 04:24:23 21° WNW 04:30:37 10° NNW visible
21 Apr ? 10:32:02 10° NNE 10:34:44 11° NE 10:37:26 10° ENE visible
22 Apr ? 03:25:59 10° SW 03:33:53 35° WNW 03:41:51 10° N visible
22 Apr ? 11:36:17 10° N 11:43:54 31° ENE 11:51:24 10° SE visible
23 Apr ? 04:38:50 10° W 04:42:50 14° NW 04:46:51 10° NNW visible
23 Apr ? 10:47:41 10° NNE 10:53:17 18° ENE 10:58:49 10° E visible
24 Apr ? 03:45:10 10° WSW 03:52:00 24° WNW 03:58:52 10° N visible
24 Apr ? 11:53:29 10° N 12:01:51 45° ENE 12:10:07 10° SE visible
25 Apr ? 02:53:25 10° SW 03:01:37 41° WNW 03:09:54 10° N visible
25 Apr ? 11:04:25 10° N 11:11:33 26° ENE 11:18:36 10° ESE visible
